CZ-4C DEB, 44613

Orbit data source: Space-Track

CZ-4C DEB, 44613 is space debris in SSO originally from a launch on Tue, 14 Nov 2017 UTC launched from the Taiyaun Space Center, China (TSC). Debris objects in space refer to the collection of defunct objects orbiting the Earth. Examples of debris include non-operational satellites, rocket bodies, and fragments generated from explosions, collisions, or faulty payload assembly.

Loading next visibility...
Identifier
44613, 2017-072D
Orbit
SSO
Country
Flag of CNCN / PRC
Related business
Manufacturer
Unknown
Mission
Spacecraft
Bus & Motor
Unknown
Mass
Unknown
Launch date (UTC)
2017-11-14 (8 years ago)
Launch vehicle
Unknown
Launch site
Taiyaun Space Center, China (TSC)
Object type
Payload
Rocket body
Debris
Shape & HBR
Unknown
Radar Cross Section
Small (<0.1 m²)

Expand to show TLE details & history
Last TLE update: 4 days ago

TLE from 4 days ago
0 CZ-4C DEB
1 44613U 17072D   25257.11620813  .00000217  00000-0  20223-3 0  9990
2 44613  98.5307 314.5685 0229973  18.4177 342.5135 13.79802869379863
Epoch: 2025-09-14T02:47Z
TLE epoch observation values (Epoch: 2025-09-14T02:47:20.382Z)
Latitude
0.00002°
Longitude
-80.60626°
Altitude
806.724 km
Speed
7.531 km/s
True Right ascension
20h 58m 16s
True Declination
0° 00' 00"
Sunlit
Object was in full shadow at epoch
Visualization orbit readout
Latitude
Unknown
Longitude
Unknown
Altitude
Unknown
Speed
Unknown
Apparent Right ascension
Unknown
Apparent Declination
Unknown
Sunlit
N/A
Visualization observer readout
Local Sidereal Time
10:05:28
Azimuth
Unknown
Elevation
Unknown
Doppler factor
Unknown
Orbital elements
Apogee altitude
1,130.587 km
Perigee altitude
792.99 km
Semi-major axis
7,339.925 km
Eccentricity
0.023
Inclination
98.5307°
RAAN
314.5685°
Arg. of periapsis
18.4177°
True anomaly
341.69937°
Mean anomaly
342.5135°
Eccentric anomaly
342.1087°
Mean motion
3.45148 °/min
Orbital period
104.3 mins
BSTAR
0.00020223
Loading maneuver chart data...
Computing Atmospheric mass density...
Loading historical data...
Loading historical data...
Loading historical data...
Loading historical data...
Loading historical data...
Loading historical data...
Loading historical data...
Other satellites on launch #72 in the year 2017 (2017-11-14 UTC)

Documentation

Showing up to 5 results
|